Terminal Aerodrome Forecast
Issued by NWS

Home | Current Version | Previous Version | Text Only | Print | Product List | Glossary On
Versions: 1 2 3 4 5 6 7 8 9 10 11 12 13 14 15 16
000
FTUS46 KMFR 221700 RRA
TAFRBG
TAF
KRBG 221744Z 2218/2318 VRB03KT P6SM BKN022 BKN040
     FM221900 35007KT P6SM SCT050
     FM222200 35010G18KT P6SM FEW050
     FM230400 VRB03KT P6SM SKC=

USA.gov is the U.S. government's official web portal to all federal, state and local government web resources and services.